When you browse on this site, cookies collect data to enhance your experience and personalize the content and advertising you see.
Visit our Privacy Policy to learn more. By continuing to use the site, you agree to this use of cookies and data.
  • En España
  • Lista de países
  • Para 7 días
  • Temperatura del agua
  • Mapa Satelital
  • El tiempo en el mapa
  • Informadores
  • user-avatar
    Iniciar sesión

    Tiempo cada hora Dangriga

    Hoy, 16 Enero, Miércoles

    Tiempo Temperatura Precipitaciones Viento Presión Humedad
    00:00 +22°C° 0 mm 3 mps 764 mmHg 95%
    01:00 +22°C° 0.5 mm 3 mps 764 mmHg 95%
    02:00 +22°C° 0.5 mm 3 mps 763 mmHg 95%
    03:00 +22°C° 0.5 mm 3 mps 763 mmHg 94%
    04:00 +22°C° 1.9 mm 4 mps 763 mmHg 95%
    05:00 +22°C° 1.9 mm 4 mps 764 mmHg 96%
    06:00 +22°C° 0 mm 4 mps 764 mmHg 97%
    07:00 +22°C° 1.3 mm 4 mps 764 mmHg 97%
    08:00 +23°C° 1.3 mm 4 mps 765 mmHg 97%
    09:00 +23°C° 1.3 mm 4 mps 765 mmHg 96%
    10:00 +26°C° 0.2 mm 5 mps 765 mmHg 87%
    11:00 +27°C° 0.2 mm 5 mps 765 mmHg 77%
    12:00 +29°C° 0.2 mm 5 mps 765 mmHg 67%
    13:00 +29°C° 0 mm 5 mps 765 mmHg 65%
    14:00 +29°C° 0 mm 5 mps 764 mmHg 63%
    15:00 +29°C° 0 mm 5 mps 764 mmHg 61%
    16:00 +28°C° 0 mm 4 mps 764 mmHg 69%
    17:00 +26°C° 0 mm 4 mps 764 mmHg 76%
    18:00 +25°C° 0 mm 4 mps 764 mmHg 83%
    19:00 +25°C° 0.1 mm 4 mps 764 mmHg 85%
    20:00 +23°C° 0.1 mm 4 mps 764 mmHg 86%
    21:00 +23°C° 0.1 mm 4 mps 764 mmHg 88%
    22:00 +23°C° 0.1 mm 4 mps 764 mmHg 88%
    23:00 +23°C° 0.1 mm 5 mps 764 mmHg 88%

    Mañana, 17 Enero, Jueves

    Tiempo Temperatura Precipitaciones Viento Presión Humedad
    00:00 +23°C° 0.1 mm 5 mps 764 mmHg 89%
    01:00 +23°C° 0 mm 4 mps 764 mmHg 88%
    02:00 +23°C° 0 mm 4 mps 764 mmHg 88%
    03:00 +23°C° 0 mm 4 mps 763 mmHg 87%
    04:00 +22°C° 0.1 mm 4 mps 764 mmHg 88%
    05:00 +22°C° 0.1 mm 4 mps 764 mmHg 88%
    06:00 +22°C° 0.1 mm 4 mps 764 mmHg 89%
    07:00 +23°C° 0.1 mm 4 mps 764 mmHg 85%
    08:00 +25°C° 0.1 mm 4 mps 765 mmHg 82%
    09:00 +25°C° 0.1 mm 4 mps 765 mmHg 78%
    10:00 +26°C° 0 mm 4 mps 765 mmHg 73%
    11:00 +28°C° 0 mm 5 mps 765 mmHg 67%
    12:00 +29°C° 0 mm 5 mps 765 mmHg 61%
    13:00 +29°C° 0 mm 5 mps 764 mmHg 60%
    14:00 +29°C° 0 mm 5 mps 764 mmHg 60%
    15:00 +29°C° 0 mm 5 mps 763 mmHg 59%
    16:00 +28°C° 0 mm 4 mps 763 mmHg 66%
    17:00 +26°C° 0 mm 4 mps 763 mmHg 73%
    18:00 +25°C° 0 mm 4 mps 763 mmHg 80%
    19:00 +25°C° 0 mm 4 mps 764 mmHg 82%
    20:00 +23°C° 0 mm 4 mps 764 mmHg 84%
    21:00 +23°C° 0 mm 4 mps 764 mmHg 86%
    22:00 +24°C° 0 mm 3 mps 764 mmHg 87%
    23:00 +22°C° 0 mm 3 mps 764 mmHg 89%

    Pasado mañana, 18 Enero, Viernes

    Tiempo Temperatura Precipitaciones Viento Presión Humedad
    00:00 +22°C° 0 mm 3 mps 763 mmHg 91%
    01:00 +22°C° 0 mm 3 mps 763 mmHg 91%
    02:00 +22°C° 0 mm 3 mps 763 mmHg 91%
    03:00 +22°C° 0 mm 3 mps 763 mmHg 91%
    04:00 +22°C° 0 mm 4 mps 763 mmHg 91%
    05:00 +22°C° 0 mm 4 mps 763 mmHg 91%
    06:00 +22°C° 0 mm 4 mps 763 mmHg 91%
    07:00 +23°C° 0 mm 4 mps 763 mmHg 86%
    08:00 +25°C° 0 mm 4 mps 764 mmHg 81%
    09:00 +26°C° 0 mm 4 mps 764 mmHg 76%
    10:00 +27°C° 0.1 mm 4 mps 764 mmHg 74%
    11:00 +27°C° 0.1 mm 4 mps 763 mmHg 71%
    12:00 +28°C° 0.1 mm 4 mps 763 mmHg 69%
    13:00 +28°C° 0.1 mm 4 mps 762 mmHg 69%
    14:00 +28°C° 0.1 mm 4 mps 762 mmHg 69%
    15:00 +28°C° 0.1 mm 4 mps 761 mmHg 69%
    16:00 +27°C° 0 mm 4 mps 761 mmHg 73%
    17:00 +26°C° 0 mm 3 mps 761 mmHg 78%
    18:00 +25°C° 0 mm 3 mps 761 mmHg 82%
    19:00 +25°C° 0 mm 3 mps 761 mmHg 83%
    20:00 +25°C° 0 mm 3 mps 762 mmHg 84%
    21:00 +24°C° 0 mm 2 mps 762 mmHg 86%
    22:00 +24°C° 0 mm 2 mps 762 mmHg 87%
    23:00 +24°C° 0 mm 2 mps 762 mmHg 88%

    19 Enero, Sábado

    Tiempo Temperatura Precipitaciones Viento Presión Humedad
    00:00 +24°C° 0 mm 2 mps 761 mmHg 90%
    01:00 +24°C° 0 mm 2 mps 761 mmHg 91%
    02:00 +23°C° 0 mm 1 mps 760 mmHg 92%
    03:00 +23°C° 0 mm 1 mps 760 mmHg 93%
    04:00 +23°C° 0.1 mm 1 mps 760 mmHg 94%
    05:00 +23°C° 0.1 mm 2 mps 760 mmHg 94%
    06:00 +23°C° 0.1 mm 2 mps 760 mmHg 95%
    07:00 +25°C° 0.2 mm 2 mps 761 mmHg 93%
    08:00 +26°C° 0.2 mm 3 mps 761 mmHg 92%
    09:00 +27°C° 0.2 mm 3 mps 761 mmHg 91%
    10:00 +28°C° 0.1 mm 3 mps 761 mmHg 82%
    11:00 +29°C° 0.1 mm 3 mps 761 mmHg 73%
    12:00 +31°C° 0.1 mm 3 mps 760 mmHg 64%
    13:00 +31°C° 0 mm 3 mps 759 mmHg 64%
    14:00 +31°C° 0 mm 3 mps 759 mmHg 63%
    15:00 +31°C° 0 mm 3 mps 758 mmHg 62%
    16:00 +29°C° 0 mm 3 mps 758 mmHg 70%
    17:00 +27°C° 0 mm 3 mps 758 mmHg 79%
    18:00 +26°C° 0 mm 2 mps 759 mmHg 87%
    19:00 +26°C° 0 mm 2 mps 759 mmHg 88%
    20:00 +25°C° 0 mm 2 mps 760 mmHg 89%
    21:00 +25°C° 0 mm 1 mps 761 mmHg 91%
    22:00 +25°C° 0 mm 1 mps 761 mmHg 91%
    23:00 +25°C° 0 mm 1 mps 761 mmHg 92%

    20 Enero, Domingo

    Tiempo Temperatura Precipitaciones Viento Presión Humedad
    00:00 +25°C° 0 mm 1 mps 761 mmHg 93%
    01:00 +25°C° 0.3 mm 2 mps 761 mmHg 94%
    02:00 +24°C° 0.3 mm 2 mps 761 mmHg 94%
    03:00 +24°C° 0.3 mm 2 mps 761 mmHg 95%
    04:00 +24°C° 0.7 mm 3 mps 762 mmHg 94%
    05:00 +23°C° 0.7 mm 4 mps 762 mmHg 92%
    06:00 +23°C° 0.7 mm 6 mps 763 mmHg 91%
    07:00 +24°C° 0 mm 6 mps 764 mmHg 87%
    08:00 +24°C° 0 mm 6 mps 765 mmHg 83%
    09:00 +26°C° 0 mm 7 mps 766 mmHg 79%
    10:00 +26°C° 0 mm 6 mps 765 mmHg 75%
    11:00 +26°C° 0 mm 6 mps 765 mmHg 72%
    12:00 +27°C° 0 mm 6 mps 765 mmHg 68%
    13:00 +28°C° 0 mm 5 mps 765 mmHg 62%
    14:00 +29°C° 0 mm 5 mps 764 mmHg 55%
    15:00 +30°C° 0 mm 5 mps 764 mmHg 49%
    16:00 +29°C° 0 mm 5 mps 764 mmHg 51%
    17:00 +28°C° 0 mm 5 mps 764 mmHg 53%
    18:00 +26°C° 0 mm 5 mps 765 mmHg 55%
    19:00 +24°C° 0 mm 6 mps 765 mmHg 56%
    20:00 +24°C° 0 mm 6 mps 766 mmHg 57%
    21:00 +23°C° 0 mm 6 mps 766 mmHg 58%
    22:00 +22°C° 0 mm 6 mps 767 mmHg 61%
    23:00 +21°C° 0 mm 6 mps 767 mmHg 63%

    21 Enero, Lunes

    Tiempo Temperatura Precipitaciones Viento Presión Humedad
    00:00 +20°C° 0 mm 6 mps 767 mmHg 65%
    01:00 +20°C° 0 mm 6 mps 766 mmHg 68%
    02:00 +19°C° 0 mm 6 mps 766 mmHg 70%
    03:00 +17°C° 0 mm 6 mps 766 mmHg 72%
    04:00 +17°C° 0 mm 6 mps 766 mmHg 73%
    05:00 +17°C° 0 mm 5 mps 767 mmHg 73%
    06:00 +16°C° 0 mm 5 mps 767 mmHg 74%
    07:00 +17°C° 0 mm 5 mps 767 mmHg 69%
    08:00 +19°C° 0 mm 5 mps 768 mmHg 65%
    09:00 +20°C° 0 mm 4 mps 768 mmHg 60%
    10:00 +22°C° 0 mm 4 mps 768 mmHg 55%
    11:00 +23°C° 0 mm 4 mps 767 mmHg 50%
    12:00 +26°C° 0 mm 3 mps 767 mmHg 45%
    13:00 +26°C° 0 mm 3 mps 766 mmHg 46%
    14:00 +26°C° 0 mm 3 mps 765 mmHg 47%
    15:00 +26°C° 0 mm 3 mps 764 mmHg 48%
    16:00 +25°C° 0 mm 3 mps 764 mmHg 55%
    17:00 +22°C° 0 mm 3 mps 764 mmHg 62%
    18:00 +21°C° 0 mm 3 mps 764 mmHg 69%
    19:00 +20°C° 0 mm 2 mps 764 mmHg 73%
    20:00 +19°C° 0 mm 2 mps 764 mmHg 76%
    21:00 +20°C° 0 mm 1 mps 765 mmHg 79%
    22:00 +20°C° 0 mm 1 mps 764 mmHg 80%
    23:00 +20°C° 0 mm 1 mps 764 mmHg 82%
    Mostrar más